EW6987 Weather Reports


time (UTC)temp
C
wind
direction
speed
KPH
gust
KPH
rain 1hr
cm
rain 24hr
cm
rain mn
cm
humidity
%
barometer
mb
20260505151558 17 228 3.2 27.4 0.00 0.00 0.00 71 1012.0
20260505130143 17 260 9.7 19.3 0.00 0.00 0.00 71 1010.4
20260505124542 16 158 8.0 19.3 0.00 0.00 0.00 72 1010.4
20260505123041 16 164 9.7 22.5 0.00 0.00 0.00 73 1010.5
20260505121539 16 287 4.8 19.3 0.00 0.00 0.00 74 1010.5
20260505120036 16 225 6.4 19.3 0.00 0.00 0.00 74 1010.2
20260505114539 16 250 4.8 16.1 0.00 0.00 0.00 75 1009.8
20260505113030 16 189 9.7 20.9 0.00 0.00 0.00 74 1009.1
20260505111532 16 184 8.0 20.9 0.00 0.00 0.00 73 1008.8
20260505101515 16 209 12.9 24.1 0.00 0.00 0.00 72 1008.3
20260505100013 16 169 14.5 22.5 0.00 0.00 0.00 71 1008.3
20260505094510 16 194 8.0 17.7 0.00 0.00 0.00 71 1008.2
20260505093008 17 192 8.0 22.5 0.00 0.00 0.00 70 1007.9
20260505091506 17 186 6.4 22.5 0.00 0.00 0.00 69 1007.6
20260505090003 17 201 12.9 27.4 0.00 0.00 0.00 69 1007.8
20260505084502 17 202 8.0 25.7 0.00 0.00 0.00 69 1007.6
20260505083100 17 183 11.3 22.5 0.00 0.00 0.00 70 1007.3
20260505081604 17 197 8.0 19.3 0.00 0.00 0.00 71 1007.3
20260505080058 17 226 8.0 14.5 0.00 0.00 0.00 70 1007.0
20260505074610 17 193 4.8 12.9 0.00 0.00 0.00 70 1006.9
20260505073057 17 234 6.4 14.5 0.00 0.00 0.00 69 1007.0
20260505071556 17 198 6.4 16.1 0.00 0.00 0.00 70 1007.0
20260505070055 17 187 4.8 9.7 0.00 0.00 0.00 73 1007.2
20260505064553 17 226 1.6 6.4 0.00 0.00 0.00 74 1007.3
20260505063056 17 201 1.6 9.7 0.00 0.00 0.00 73 1007.7
20260505061614 18 235 6.4 17.7 0.00 0.00 0.00 67 1007.9
20260505060046 20 242 8.0 27.4 0.00 0.00 0.00 64 1007.9
20260505054555 20 181 12.9 24.1 0.00 0.00 0.00 61 1007.0
20260505053043 20 179 9.7 22.5 0.00 0.00 0.00 62 1006.9
20260505051539 20 162 12.9 24.1 0.00 0.00 0.00 63 1007.0
20260505041529 19 122 12.9 22.5 0.00 0.00 0.00 63 1007.4
20260505040026 19 102 11.3 19.3 0.00 0.00 0.00 63 1007.5
20260505034525 19 124 12.9 27.4 0.00 0.00 0.00 62 1007.7
20260505033034 19 153 6.4 17.7 0.00 0.00 0.00 63 1007.8
20260505031524 19 220 11.3 22.5 0.00 0.00 0.00 62 1007.9
20260505030023 20 233 4.8 17.7 0.00 0.00 0.00 61 1008.1
20260505024547 20 174 9.7 25.7 0.00 0.00 0.00 59 1008.2
20260505023025 20 164 9.7 24.1 0.00 0.00 0.00 58 1008.0
20260505021541 20 167 12.9 22.5 0.00 0.00 0.00 56 1008.0
20260505020020 20 166 8.0 20.9 0.00 0.00 0.00 54 1008.0
20260505014524 20 173 6.4 19.3 0.00 0.00 0.00 54 1008.0
20260505013019 21 194 9.7 25.7 0.00 0.00 0.00 53 1007.8
20260505011519 21 194 8.0 16.1 0.00 0.00 0.00 54 1007.5
20260505010017 21 142 8.0 14.5 0.00 0.00 0.00 52 1007.4
20260505004524 21 178 8.0 17.7 0.00 0.00 0.00 52 1007.4
20260505003016 21 153 8.0 27.4 0.00 0.00 0.00 51 1007.1
20260505001515 21 214 11.3 25.7 0.00 0.00 0.00 51 1006.8
20260505000015 22 148 9.7 24.1 0.00 0.00 0.00 51 1006.9
20260504234614 22 215 12.9 24.1 0.00 0.00 0.00 51 1006.8
20260504233014 22 160 11.3 27.4 0.00 0.00 0.00 50 1006.6
20260504231513 22 164 11.3 27.4 0.00 0.00 0.00 50 1006.6
20260504230013 23 177 11.3 24.1 0.00 0.00 0.00 49 1006.4
20260504224511 23 125 12.9 27.4 0.00 0.00 0.00 50 1006.4
20260504223010 23 210 14.5 27.4 0.00 0.00 0.00 48 1006.6
20260504221508 23 189 16.1 29.0 0.00 0.00 0.00 49 1006.9
20260504220005 23 151 11.3 32.2 0.00 0.00 0.00 49 1006.9
20260504214503 23 153 11.3 24.1 0.00 0.00 0.00 52 1007.1
20260504213003 23 129 8.0 25.7 0.00 0.00 0.00 50 1007.1
20260504211600 23 194 11.3 25.7 0.00 0.00 0.00 51 1007.2
20260504204609 23 194 16.1 35.4 0.00 0.00 0.00 51 1007.7
20260504203053 23 173 14.5 35.4 0.00 0.00 0.00 50 1008.0
20260504201550 23 203 16.1 41.8 0.00 0.00 0.00 49 1008.1
20260504200052 23 198 12.9 32.2 0.00 0.00 0.00 47 1008.3
20260504194547 23 183 14.5 29.0 0.00 0.00 0.00 47 1008.7
20260504193044 23 157 11.3 25.7 0.00 0.00 0.00 48 1009.0
20260504191542 23 214 11.3 25.7 0.00 0.00 0.00 48 1009.2
20260504190040 22 188 12.9 30.6 0.00 0.00 0.00 49 1009.4
20260504184537 22 203 12.9 25.7 0.00 0.00 0.00 48 1009.7
20260504183034 22 199 9.7 24.1 0.00 0.00 0.00 48 1009.9
20260504181530 22 127 11.3 24.1 0.00 0.00 0.00 50 1010.1
20260504180027 22 148 11.3 24.1 0.00 0.00 0.00 50 1010.4
20260504174525 22 220 11.3 22.5 0.00 0.00 0.00 51 1010.6
20260504173022 22 185 9.7 20.9 0.00 0.00 0.00 53 1010.8
20260504171518 21 125 11.3 22.5 0.00 0.00 0.00 52 1010.9